22:30
Airports
History
Links
Donate
Help keep this website running!
PayPal
Bitcoin
Information on this page is community maintained and may be outdated or inaccurate and is intended for reference only or PC simulator navigating.
Always use approved charts for navigating.
LERM
ROBLEDILLO DE MOHERNANDO
ROBLEDILLO DE MOHERNANDO (LERM)
Robledillo de Mohernando, Castille La Mancha, Spain (19227)
(U)
Lat/Lng:40° 51' 44.2" N / 3° 14' 49.24" W
40.862278 / -3.247012
Elevation:3097'ft 944mMSL
ID / ICAO:LERM
Runways:1
Longest:(01-19) 997.8m 3,274ft Asphalt
Distance To
Airport ID:
Nearby VORs <50NM
Nearby NDBs
Nearby WeatherUpdated 06-26-17 22:00 GMT
Nearby weather at LETO, Torrejon located 27.3 nautical miles from LERM
Altimeter: 29.88
Visibility: 6.2 statute miles
Wind: 0 knots (000°)
Temp: 23°c 73°f
Humidity: 31.1%

METAR: LETO 262200Z 00000KT CAVOK 23/05 Q1012 NOSIG

(Powered by phpweather)
Runway 01 / 19
Dimensions:997.8 x 10.1m 3274' x 33'ft
Surface:Asphalt
Runway 01 [A]Runway 19 [B]
Heading:007°TH 187°TH
Lat:
Lng:
40° 51' 28.12"N
3° 14' 51.96"W
40° 52' 0.28"N
3° 14' 46.52"W
User Notes and Comments
Google Map
Nearby Airports
(C) Torrejon 27.3 NM
LETO (WX) SSW 202°
(C) Barajas 30.1 NM
LEMD (WX) SSW 212°
(C) Cuatro Vientos 44.1 NM
LEVS (WX) SW 219°
(C) Getafe 46.6 NM
LEGT (WX) SSW 212°
(U) FUENTEMILANOS 51.9 NM
LEFM W 271°
(U) OCANA 65.3 NM
LEOC S 191°
(U) Soria-Garray 77.2 NM
LEGY NNE 31°
VFR Chart
Flight Planning at SkyVector.com